Вернуться в каталог

DELTA 1 DEB

АктивенUNKNOWN
NORAD 10649·DEBRIS·🇺🇸 United States

Запущен Jul 29, 1976 с Vandenberg Space Force Base

Loading…

Ближайшие Пролёты (ближайшие 24 часа)

TLE

СвежийSource: Space-Track

Эпоха: Sep 14, 2026, 05:22 UTC

1 10649U 76077K   26257.22408816 -.00000060  00000-0 -25653-3 0  9992
2 10649 102.2885 174.2953 0376931 308.2718 213.5434 11.80282826146817

Отслеживайте DELTA 1 DEB в реальном времени с AllMySat

Download on the App Store